Regional Weather Roundup
Issued by NWS

Home | Current Version | Previous Version | Text Only | Print | Product List | Glossary Off
Versions: 1 2 3 4 5 6 7 8 9 10 11 12 13 14 15 16 17 18 19 20 21 22 23 24 25 26 27 28 29 30 31 32 33 34 35 36 37 38 39 40 41 42 43 44 45 46 47 48 49 50

000
ASUS45 KTFX 241610
RWRMT
MONTANA REGIONAL WEATHER ROUNDUP
NATIONAL WEATHER SERVICE GREAT FALLS MT
1000 AM MDT TUE APR 24 2018

NOTE: "FAIR" INDICATES FEW OR NO CLOUDS BELOW 12000 FEET WITH NO
SIGNIFICANT WEATHER AND/OR OBSTRUCTIONS TO VISIBILITY.

MTZ001>007-043-241700-
WEST OF THE DIVIDE

CITY           SKY/WX    TMP DP  RH WIND       PRES   REMARKS
KALISPELL      FAIR      47  25  42 NE9       30.47F
MISSOULA       FAIR      42  29  59 CALM      30.48F
BUTTE          FAIR      35  25  66 CALM      30.48F
MULLAN PASS    FAIR      37  19  48 SE12G21   30.41R WCI  29
ANACONDA         N/A     41  23  48 SE9       30.48F
DEER LODGE       N/A     43  23  45 S8        30.49F
HAMILTON         N/A     45  25  45 MISG      30.47F
PLAINS           N/A     44  30  58 CALM      30.44F
RONAN            N/A     46  27  46 N3        30.47F
$$

MTZ008-052>055-241700-
SOUTHWEST MONTANA

CITY           SKY/WX    TMP DP  RH WIND       PRES   REMARKS
BOZEMAN        FAIR      38  30  73 VRB3      30.52F
DILLON         FAIR      35  29  78 SE3       30.49F
ENNIS          SUNNY     36  27  69 VRB5      30.52S
W YELLOWSTONE  FAIR      32  14  47 NE10      30.45S WCI  24
THREE FORKS      N/A     37  35  92 CALM      30.45F
TWIN BRIDGES     N/A     38  27  65 N2        30.42S
$$

MTZ009-010-012-014-046-048-049-054-241700-
EAST SLOPES AND CENTRAL MONTANA

CITY           SKY/WX    TMP DP  RH WIND       PRES   REMARKS
CUT BANK       FAIR      48  23  37 S14       30.38F
GREAT FALLS    FAIR      48  25  40 SW14      30.45F
HELENA         FAIR      40  30  67 VRB5      30.50F
CHOTEAU          N/A     48  25  40 S9G16     30.43F
WHITE SULPHUR    N/A     32  30  93 CALM      30.48F
$$

MTZ011-013-016-021-045-047-050-051-241700-
NORTH CENTRAL MONTANA

CITY           SKY/WX    TMP DP  RH WIND       PRES   REMARKS
HAVRE          FAIR      50  27  40 SW17      30.45F
LEWISTOWN      FAIR      44  28  53 E6        30.48S
N BAR RANCH    FAIR      41  28  60 CALM      30.51S
CHINOOK          N/A     48  28  46 NW3       30.46F
$$

MTZ017>020-022>027-061-062-241700-
NORTHEAST MONTANA

CITY           SKY/WX    TMP DP  RH WIND       PRES   REMARKS
GLASGOW        FAIR      49  28  44 SW3       30.47F
GLENDIVE       FAIR      45  36  70 S9        30.51S
JORDAN           N/A     49  31  49 W5        30.48F
MALTA          SUNNY     46  32  57 CALM      30.45F
SIDNEY         FAIR      47  33  58 S8        30.50F
WOLF POINT     FAIR      48  27  44 VRB5      30.49F
PLENTYWOOD       N/A     46  25  42 CALM      30.47S
POPLAR           N/A     46  27  46 SW5       30.49F
SCOBEY           N/A     49  24  37 MISG      30.41F
$$

MTZ028>42-056>058-241700-
SOUTHCENTRAL AND SOUTHEAST MONTANA

CITY           SKY/WX    TMP DP  RH WIND       PRES   REMARKS
BAKER          PTSUNNY   32  32 100 W6        30.52R FOG     WCI  26
BILLINGS       FAIR      41  36  82 SW9       30.52S
LIVINGSTON     PTSUNNY   36  31  82 NW5       30.51F
MILES CITY     FAIR      45  38  76 SW9       30.51S
BIG TIMBER     SUNNY     34  30  86 W14       30.53S WCI  24
EKALAKA          N/A     32  29  89 W5        30.43R
FORSYTH          N/A     43  36  75 SW6       30.53R
$$

REGIONAL REPORTS...DAKOTAS

CITY           SKY/WX    TMP DP  RH WIND       PRES   REMARKS
WILLISTON      FAIR      50  29  44 S8        30.49S
MINOT          FAIR      51  25  36 NW10      30.45S
DICKINSON      FAIR      48  23  37 NE12      30.46S
BEACH          FAIR      46  19  34 VRB3      30.53S
CROSBY         FAIR      52  21  30 W9        30.47S
TIOGA          FAIR      48  25  40 W9        30.48S
WATFORD CITY   FAIR      48  25  40 W8        30.48F
BISMARCK       FAIR      49  26  41 NE18G28   30.45S
GRAND FORKS    FAIR      45  33  63 N21G29    30.39S
FARGO          FAIR      46  35  65 N17       30.35S
BUFFALO SD       N/A     43  32  65 N15       30.42R
RAPID CITY     PTSUNNY   39  32  76 N28G33    30.45F WCI  28
$$

REGIONAL REPORTS...WYOMING/IDAHO/WASHINGTON

CITY           SKY/WX    TMP DP  RH WIND       PRES   REMARKS
GILLETTE       FLURRIES  36  32  85 NW9       30.50R WCI  29
SHERIDAN       PTSUNNY   46  28  49 N5        30.51S
BUFFALO WY     CLOUDY    40  23  50 VRB3      30.50S
CODY           FAIR      41  23  48 E7        30.51S
YELLOWSTONE LA   N/A     28  15  58 E5        30.47R
IDAHO FALLS    FAIR      41  27  57 NE8       30.41S
SALMON         FAIR      43  27  53 W5        30.48F
BOISE          FAIR      52  30  43 SE15      30.39R
SPOKANE        FAIR      49  30  48 NE9       30.40F
$$

REGIONAL REPORTS...ALBERTA

CITY           SKY/WX    TMP DP  RH WIND       PRES   REMARKS
CALGARY        MOSUNNY   55  19  24 S5        30.25F
CARDSTON         N/A     55  18  22 SE3         N/A
EDMONTON       PTSUNNY   55  27  33 SW3       30.18F
FORT MCMURRAY  PTSUNNY   57  23  26 W17G28    29.97F
HIGH LEVEL     CLOUDY    50  27  40 NW3       29.92R
LETHBRIDGE     MOSUNNY   55  19  24 SW15G24   30.31F
LLOYDMINSTER   PTSUNNY   52  30  43 SW12      30.19F
MEDICINE HAT   MOSUNNY   55  25  30 SW18G26   30.33F
MILK RIVER       N/A     54  21  28 S21G26      N/A
ONEFOUR          N/A     52  21  30 S20G25      N/A
PEACE RIVER    CLOUDY    43  27  52 SW12      30.05F
PINCHER CREEK  SUNNY     54  19  26 W24G31    30.31F
WATERTON GATE    N/A     50  18  27 SW23G36     N/A
$$

REGIONAL REPORTS...SASKATCHEWAN

CITY           SKY/WX    TMP DP  RH WIND       PRES   REMARKS
CORONACH         N/A     52  19  28 SW8         N/A
CYPRESS HILLS    N/A     45  19  36 SW15G23     N/A
ESTEVAN        MOSUNNY   52  21  30 W12       30.45F
MOOSE JAW        N/A     55  21  26 SW17G23     N/A
PRINCE ALBERT  PTSUNNY   50  32  50 SW9       30.28F
REGINA         MOSUNNY   54  27  35 SW16      30.42S
ROCKGLEN         N/A     52  19  28 W14         N/A
SASKATOON      PTSUNNY   55  28  35 SW18      30.31F
SWIFT CURRENT  SUNNY     54  25  32 SW20G28   30.37F
VAL MARIE        N/A     54  25  32 SW9         N/A
$$



USA.gov is the U.S. government's official web portal to all federal, state and local government web resources and services.